Hyannis, MA

11:55 AM EST on November 13, 2019 (GMT -0500)
Barnstable Municipal-Boardman-Polando Field

Weather History for KHYA - October, 2019

Change the Weather History Date:

Monday, October 21, 2019

  Actual Average Record
Temperature  
Mean Temperature 56 °F -  
Max Temperature 61 °F 58 °F 76 °F (1984)
Min Temperature 52 °F 40 °F 25 °F (1972)
Degree Days  
Heating Degree Days 8    
Growing Degree Days 6 (Base 50)    
Moisture  
Dew Point 51 °F    
Average Humidity 84    
Maximum Humidity 93    
Minimum Humidity 62    
Precipitation  
Precipitation 0.21 in - - ()
Sea Level Pressure  
Sea Level Pressure 30.04 in    
Wind  
Wind Speed 7 mph ()    
Max Wind Speed 18 mph    
Max Gust Speed 29 mph    
Visibility 8.7 miles    
Events Rain    
Averages and records for this station are not official NWS values.
T = Trace of Precipitation, MM = Missing Value Source: Averaged Metar Reports

Daily Weather History Graph

Daily Weather History Graph

Search for Another Location

Airport or City:

Astronomy

Oct. 21, 2019 Rise Set
Actual Time 6:59 AM EDT 5:51 PM EDT
Civil Twilight 6:31 AM EDT 6:19 PM EDT
Nautical Twilight 5:59 AM EDT 6:51 PM EDT
Astronomical Twilight 5:27 AM EDT 7:23 PM EDT
Moon No Moon Rise 2:18 PM EDT (10/21)
Length of Visible Light 11h 47m
Length of Day
10h 51m
Waning Gibbous, 48% of the Moon is Illuminated
Oct 21
Waning Gibbous
Oct 27
New
Nov 4
First Quarter
Nov 12
Full
Nov 19
Last Quarter

Hourly Weather History & Observations

Time (EDT) Temp. Dew Point Humidity Pressure Visibility Wind Dir Wind Speed Gust Speed Precip Events Conditions
12:56 AM 54.0 °F 52.0 °F 93% 30.02 in 10.0 mi NE 4.6 mph - 0.04 in Rain Light Rain
1:13 AM 54.0 °F 51.1 °F 90% 30.02 in 10.0 mi NE 5.8 mph - 0.00 in Rain Light Rain
1:32 AM 54.0 °F 52.0 °F 93% 30.01 in 10.0 mi ENE 4.6 mph - 0.01 in Rain Light Rain
1:56 AM 55.0 °F 52.0 °F 89% 30.01 in 10.0 mi ENE 4.6 mph - 0.01 in   Mostly Cloudy
2:56 AM 55.0 °F 52.0 °F 89% 29.99 in 7.0 mi East 6.9 mph - 0.05 in Rain Rain
3:56 AM 55.0 °F 52.0 °F 89% 29.97 in 8.0 mi East 6.9 mph - 0.05 in Rain Light Rain
4:28 AM 55.0 °F 52.0 °F 89% 30.00 in 9.0 mi NNE 4.6 mph - 0.03 in Rain Light Rain
4:47 AM 55.0 °F 52.0 °F 89% 30.00 in 10.0 mi ENE 5.8 mph - 0.03 in Rain Light Rain
4:56 AM 55.0 °F 52.0 °F 89% 30.00 in 7.0 mi East 5.8 mph - 0.03 in Rain Light Rain
5:12 AM 55.0 °F 52.0 °F 89% 29.99 in 6.0 mi ENE 5.8 mph - 0.01 in Rain Light Rain
5:56 AM 55.0 °F 52.0 °F 89% 30.01 in 6.0 mi NE 6.9 mph - 0.01 in Rain Light Rain
6:11 AM 55.0 °F 52.0 °F 89% 30.01 in 3.0 mi NNE 8.1 mph - 0.01 in Rain Light Rain
6:19 AM 55.0 °F 53.1 °F 93% 30.01 in 2.5 mi NE 6.9 mph - 0.01 in Rain Light Rain
6:26 AM 55.0 °F 53.1 °F 93% 30.01 in 3.0 mi NE 8.1 mph - 0.02 in Rain Light Rain
6:56 AM 55.0 °F 53.1 °F 93% 30.01 in 8.0 mi ENE 9.2 mph - 0.02 in   Overcast
7:56 AM 55.0 °F 52.0 °F 89% 30.04 in 10.0 mi NE 9.2 mph - N/A   Overcast
8:56 AM 55.0 °F 52.0 °F 89% 30.04 in 10.0 mi NNE 9.2 mph - N/A   Overcast
9:56 AM 57.0 °F 53.1 °F 87% 30.02 in 10.0 mi NNE 11.5 mph 18.4 mph N/A   Overcast
10:56 AM 59.0 °F 51.1 °F 75% 30.02 in 10.0 mi NE 17.3 mph 24.2 mph N/A   Overcast
11:56 AM 59.0 °F 48.9 °F 69% 30.05 in 10.0 mi NNE 15.0 mph - N/A   Overcast
12:56 PM 60.1 °F 50.0 °F 69% 30.06 in 10.0 mi NNE 16.1 mph 23.0 mph N/A   Overcast
1:56 PM 61.0 °F 48.9 °F 64% 30.04 in 10.0 mi NNE 17.3 mph 28.8 mph N/A   Scattered Clouds
2:56 PM 60.1 °F 48.0 °F 64% 30.04 in 10.0 mi NNE 18.4 mph 26.5 mph N/A   Clear
3:56 PM 60.1 °F 46.9 °F 62% 30.05 in 10.0 mi North 16.1 mph 20.7 mph N/A   Clear
4:56 PM 57.9 °F 48.0 °F 70% 30.07 in 10.0 mi NNE 12.7 mph - N/A   Clear
5:56 PM 55.0 °F 48.0 °F 77% 30.10 in 10.0 mi NNE 8.1 mph - N/A   Clear
6:56 PM 54.0 °F 48.9 °F 83% 30.11 in 10.0 mi NNE 8.1 mph - N/A   Clear
7:56 PM 54.0 °F 48.9 °F 83% 30.12 in 10.0 mi NNE 6.9 mph - N/A   Clear
8:56 PM 53.1 °F 48.0 °F 83% 30.12 in 10.0 mi NNE 5.8 mph - N/A   Clear
9:56 PM 52.0 °F 48.0 °F 86% 30.13 in 10.0 mi NNE 5.8 mph - N/A   Clear
10:56 PM 53.1 °F 48.9 °F 86% 30.14 in 10.0 mi NNE 4.6 mph - N/A   Clear
11:56 PM 52.0 °F 48.0 °F 86% 30.13 in 10.0 mi North 3.5 mph - N/A   Clear